User: anonymous   Login
Location: Unspecified
(0.0000°N, 0.0000°E)
Time: 00:05:37
(UTC+00:00)
Language:

STARLINK-5932 - Orbit

View from above orbital plane
View from above orbital plane
View from above satellite
View from above satellite

Ground track
Ground track

The orbit is defined by the following mean orbital elements,

1 55943U          26145.26874270 +.00000000 +00000-0 +26501-4 0 00001
2 55943  69.9998  91.2592 0003096 269.4395  90.6409 14.98332566    07
Epoch (UTC): 25 May 2026 06:26:59
Eccentricity: 0.0003096
inclination: 69.9998°
perigee height: 570 km
apogee height: 574 km
right ascension of ascending node: 91.2592°
argument of perigee: 269.4395°
revolutions per day: 14.98332566
mean anomaly at epoch: 90.6409°

The dashed part of the orbit path shows where the satellite is in the earth's shadow,  

DLR